Plattsburgh, NY

8:12 PM EDT on April 19, 2018 (GMT -0400)
Plattsburgh International

Weather History for KPBG - March, 2013

Change the Weather History Date:

Thursday, March 21, 2013

  Actual Average Record
Temperature  
Mean Temperature 29 °F 32 °F  
Max Temperature 34 °F 42 °F 77 °F (2012)
Min Temperature 24 °F 22 °F 1 °F (1988)
Degree Days  
Heating Degree Days 36 33  
Month to date heating degree days 727 759  
Since 1 July heating degree days 5878 6371  
Cooling Degree Days 0 0  
Month to date cooling degree days 0 0  
Year to date cooling degree days 0 0  
Moisture  
Dew Point 15 °F    
Average Humidity 52    
Maximum Humidity 68    
Minimum Humidity 35    
Precipitation  
Precipitation 0.00 in - 0.80 in (1974)
Month to date precipitation 0.88  
Year to date precipitation 2.36  
Sea Level Pressure  
Sea Level Pressure 29.69 in    
Wind  
Wind Speed 5 mph (South)    
Max Wind Speed 16 mph    
Max Gust Speed 23 mph    
Visibility 10 miles    
Events      
T = Trace of Precipitation, MM = Missing Value Source: NWS Daily Summary

Daily Weather History Graph

Daily Weather History Graph

Search for Another Location

Airport or City:

Astronomy

Mar. 21, 2013 Rise Set
Actual Time 6:54 AM EDT 7:07 PM EDT
Civil Twilight 6:25 AM EDT 7:37 PM EDT
Nautical Twilight 5:51 AM EDT 8:11 PM EDT
Astronomical Twilight 5:16 AM EDT 8:46 PM EDT
Moon 1:23 PM EDT (3/21) 3:26 AM EDT (3/21)
Length of Visible Light 13h 11m
Length of Day
12h 13m
Waxing Gibbous, 68% of the Moon is Illuminated
Mar 21
Waxing Gibbous
Mar 27
Full
Apr 3
Last Quarter
Apr 10
New
Apr 18
First Quarter

Hourly Weather History & Observations

Time (EDT) Temp. Windchill Dew Point Humidity Pressure Visibility Wind Dir Wind Speed Gust Speed Precip Events Conditions
12:53 AM 27.0 °F 21.6 °F 17.1 °F 66% 29.70 in 10.0 mi South 4.6 mph - N/A   Clear
2:53 AM 27.0 °F 20.5 °F 16.0 °F 63% 29.71 in 10.0 mi South 5.8 mph - N/A   Clear
3:53 AM 27.0 °F 19.5 °F 16.0 °F 63% 29.70 in 10.0 mi South 6.9 mph - N/A   Partly Cloudy
4:53 AM 26.1 °F 20.5 °F 14.0 °F 60% 29.70 in 10.0 mi Variable 4.6 mph - N/A   Clear
5:53 AM 25.0 °F 19.3 °F 14.0 °F 63% 29.71 in 10.0 mi Variable 4.6 mph - N/A   Clear
6:53 AM 24.1 °F 17.0 °F 14.0 °F 65% 29.72 in 10.0 mi Variable 5.8 mph - N/A   Clear
7:53 AM 25.0 °F 20.7 °F 12.9 °F 60% 29.73 in 10.0 mi SSW 3.5 mph - N/A   Clear
8:53 AM 28.0 °F 21.7 °F 12.9 °F 53% 29.73 in 10.0 mi Variable 5.8 mph - N/A   Clear
9:53 AM 30.0 °F 21.7 °F 10.9 °F 45% 29.72 in 10.0 mi SSW 9.2 mph 16.1 mph N/A   Clear
10:53 AM 32.0 °F 25.6 °F 10.0 °F 40% 29.71 in 10.0 mi Variable 6.9 mph 16.1 mph N/A   Partly Cloudy
11:53 AM 33.1 °F 26.9 °F 9.0 °F 37% 29.70 in 10.0 mi Variable 6.9 mph 16.1 mph N/A   Overcast
12:53 PM 30.9 °F 21.7 °F 16.0 °F 54% 29.68 in 10.0 mi SSE 11.5 mph 19.6 mph N/A   Overcast
1:53 PM 33.1 °F 26.1 °F 17.1 °F 52% 29.66 in 10.0 mi SSE 8.1 mph - N/A   Overcast
2:53 PM 32.0 °F 22.1 °F 17.1 °F 54% 29.65 in 10.0 mi SSE 13.8 mph - N/A   Overcast
3:53 PM 33.1 °F 26.9 °F 17.1 °F 52% 29.65 in 10.0 mi SE 6.9 mph - N/A   Overcast
4:53 PM 33.1 °F 27.7 °F 16.0 °F 50% 29.64 in 10.0 mi South 5.8 mph - N/A   Overcast
5:53 PM 34.0 °F 31.0 °F 14.0 °F 44% 29.65 in 10.0 mi Variable 3.5 mph - N/A   Overcast
6:53 PM 32.0 °F 26.4 °F 16.0 °F 52% 29.66 in 10.0 mi Variable 5.8 mph - N/A   Overcast
7:53 PM 30.9 °F - 18.0 °F 59% 29.67 in 10.0 mi Calm Calm - N/A   Overcast
8:53 PM 30.9 °F 24.3 °F 16.0 °F 54% 29.68 in 10.0 mi West 6.9 mph - N/A   Overcast
9:53 PM 30.0 °F - 16.0 °F 56% 29.69 in 10.0 mi Calm Calm - N/A   Overcast
10:53 PM 27.0 °F - 16.0 °F 63% 29.69 in 10.0 mi Calm Calm - N/A   Mostly Cloudy
11:53 PM 27.0 °F - 16.0 °F 63% 29.68 in 10.0 mi Calm Calm - N/A   Overcast